Location: Newark
(51.3318°N, 0.0053°E)
Time: 16:23:00
(UTC+00:00)

LO-87 - Pass Details

Date: 03 July 2022
Orbit: 450 x 466 km, 97.4° (Epoch: 18 August)

Event Time Altitude Azimuth Distance (km) Brightness Sun altitude
Exits shadow 23:54:58 28° 216° (SW) 899 ? -15.7°
Maximum altitude 23:56:11 39° 262° (W) 717 ? -15.8°
Drops below altitude 10° 23:59:30 10° 332° (NNW) 1,632 ? -15.8°
Sets 00:01:39 0° 341° (NNW) 2,517 ? -15.8°
